Find Starlink 31681

NORAD ID: 59746 Int'l Des: 2024-090 Owner: SPXS Country: US Constellation: starlink operational
LEOCIRCULAR

Current View

Loading 3D Globe...

About Starlink 31681

Starlink 31681 (NORAD 59746) is a starlink constellation satellite (v2 mini) launched May 13, 2024 by SPXS of US. It operates in LEO, CIRCULAR orbit with a mass of 730.00 kg.

About Starlink 31681

Description loading...

Upcoming Passes

Passes for default location (London). Set your location on the main map for personalized predictions.

Altitude History

Loading altitude history...

Two-Line Element Set

1 59746U 24090S 26167.18275365 -.00005624 00000-0 -19483-3 0 9992
2 59746 42.9984 340.3109 0001831 279.2899 80.7746 15.27603882118585
Epoch: Jun 16, 2026 • Age: 11 hours

Current Status

Altitude 490.0 km
Velocity 7.62 km/s
Sub-Earth Point -30.27°S, 166.92°E
Launch Date May 13, 2024
Age 2 years
Type internet

Technical Details

Classification Payload
Mass 730.00 kg
Dry Mass 700.00 kg
Total Mass 730.00 kg
Length 0.30 m
Diameter 4.10 m
Span 29.00 m
Shape Box + pan
Manufacturer SPXS
Bus Type Starlink V2M
Phase Status In Orbit
Owner/State SPXS/US

Most Searched